Вернуться в каталог

THORAD AGENA D DEB

АктивенLEO
NORAD 4748·DEBRIS·🇺🇸 United States

Запущен Apr 8, 1970 с Vandenberg Space Force Base

Loading…

Ближайшие Пролёты (ближайшие 24 часа)

TLE

СвежийSource: Space-Track

Эпоха: Sep 14, 2026, 08:16 UTC

1 04748U 70025CW  26257.34486174  .00000230  00000-0  34668-3 0  9991
2 04748 100.1295  78.8160 0005253 255.7295 104.3262 13.64582826795119

Отслеживайте THORAD AGENA D DEB в реальном времени с AllMySat

Download on the App Store